| time (UTC) | temp F | wind direction | speed MPH | gust MPH | rain 1hr in | rain 24hr in | rain mn in | humidity % | barometer mb |
| 20260503013704 | 77 | 324 | 3.0 | 12.0 | 0.00 | 0.00 | 0.00 | 49 | 1012.4 |
| 20260503010704 | 78 | 311 | 1.0 | 3.0 | 0.00 | 0.00 | 0.00 | 47 | 1012.5 |
| 20260503003203 | 78 | 8 | 2.0 | 12.0 | 0.00 | 0.00 | 0.00 | 48 | 1012.6 |
| 20260503000204 | 80 | 343 | 3.0 | 12.0 | 0.00 | 0.00 | 0.00 | 46 | 1012.7 |
| 20260502233204 | 77 | 293 | 6.0 | 14.0 | 0.00 | 0.00 | 0.00 | 48 | 1013.1 |
| 20260502230704 | 76 | 327 | 5.0 | 12.0 | 0.00 | 0.00 | 0.00 | 50 | 1013.4 |
| 20260502230204 | 76 | 254 | 6.0 | 14.0 | 0.00 | 0.00 | 0.00 | 49 | 1013.5 |
| 20260502223704 | 76 | 289 | 5.0 | 12.0 | 0.00 | 0.00 | 0.00 | 51 | 1013.8 |
| 20260502223204 | 77 | 292 | 3.0 | 14.0 | 0.00 | 0.00 | 0.00 | 51 | 1013.9 |
| 20260502220704 | 76 | 349 | 2.0 | 10.0 | 0.00 | 0.00 | 0.00 | 56 | 1014.1 |
| 20260502220205 | 76 | 298 | 3.0 | 13.0 | 0.00 | 0.00 | 0.00 | 54 | 1014.2 |
| 20260502213204 | 75 | 276 | 4.0 | 13.0 | 0.00 | 0.00 | 0.00 | 55 | 1014.5 |
| 20260502210704 | 72 | 294 | 5.0 | 12.0 | 0.00 | 0.00 | 0.00 | 58 | 1014.7 |
| 20260502210204 | 73 | 303 | 5.0 | 12.0 | 0.00 | 0.00 | 0.00 | 56 | 1014.8 |
| 20260502203703 | 73 | 291 | 5.0 | 10.0 | 0.00 | 0.00 | 0.00 | 57 | 1014.9 |
| 20260502203204 | 72 | 299 | 3.0 | 13.0 | 0.00 | 0.00 | 0.00 | 60 | 1014.9 |
| 20260502200704 | 71 | 285 | 3.0 | 10.0 | 0.00 | 0.00 | 0.00 | 62 | 1015.3 |
| 20260502200204 | 70 | 328 | 4.0 | 12.0 | 0.00 | 0.00 | 0.00 | 62 | 1015.3 |
| 20260502193704 | 69 | 294 | 3.0 | 9.0 | 0.00 | 0.00 | 0.00 | 64 | 1015.6 |
| 20260502193204 | 69 | 331 | 2.0 | 13.0 | 0.00 | 0.00 | 0.00 | 65 | 1015.6 |
| 20260502190704 | 66 | 309 | 6.0 | 12.0 | 0.00 | 0.00 | 0.00 | 67 | 1016.0 |
| 20260502183703 | 65 | 304 | 3.0 | 8.0 | 0.00 | 0.00 | 0.00 | 70 | 1016.2 |
| 20260502180204 | 62 | 275 | 2.0 | 12.0 | 0.00 | 0.00 | 0.00 | 73 | 1016.2 |
| 20260502170204 | 59 | 339 | 3.0 | 9.0 | 0.00 | 0.00 | 0.00 | 78 | 1016.5 |
| 20260502163704 | 58 | 3 | 3.0 | 8.0 | 0.00 | 0.00 | 0.00 | 79 | 1016.8 |
| 20260502163204 | 58 | 332 | 2.0 | 5.0 | 0.00 | 0.00 | 0.00 | 80 | 1016.9 |
| 20260502160703 | 57 | 299 | 1.0 | 3.0 | 0.00 | 0.00 | 0.00 | 84 | 1016.9 |
| 20260502160203 | 56 | 298 | 2.0 | 3.0 | 0.00 | 0.00 | 0.00 | 84 | 1016.9 |
| 20260502130704 | 53 | 140 | 0.0 | 0.0 | 0.00 | 0.00 | 0.00 | 89 | 1016.5 |
| 20260502130204 | 53 | 140 | 0.0 | 2.0 | 0.00 | 0.00 | 0.00 | 89 | 1016.5 |
| 20260502123704 | 53 | 139 | 1.0 | 3.0 | 0.00 | 0.00 | 0.00 | 88 | 1016.7 |
| 20260502123204 | 53 | 150 | 2.0 | 3.0 | 0.00 | 0.00 | 0.00 | 88 | 1016.9 |
| 20260502113704 | 54 | 179 | 2.0 | 3.0 | 0.00 | 0.00 | 0.00 | 87 | 1016.8 |
| 20260502113204 | 54 | 330 | 0.0 | 3.0 | 0.00 | 0.00 | 0.00 | 86 | 1016.6 |
| 20260502110704 | 53 | 172 | 2.0 | 6.0 | 0.00 | 0.00 | 0.00 | 86 | 1017.2 |
| 20260502103704 | 54 | 173 | 1.0 | 3.0 | 0.00 | 0.00 | 0.00 | 85 | 1016.8 |
| 20260502103204 | 54 | 170 | 1.0 | 3.0 | 0.00 | 0.00 | 0.00 | 86 | 1016.6 |
| 20260502100704 | 55 | 204 | 0.0 | 2.0 | 0.00 | 0.00 | 0.00 | 84 | 1016.4 |
| 20260502100204 | 55 | 319 | 0.0 | 3.0 | 0.00 | 0.00 | 0.00 | 83 | 1016.3 |
| 20260502090703 | 56 | 225 | 0.0 | 3.0 | 0.00 | 0.00 | 0.00 | 79 | 1016.4 |
| 20260502090204 | 56 | 172 | 2.0 | 3.0 | 0.00 | 0.00 | 0.00 | 78 | 1016.4 |
| 20260502070704 | 61 | 324 | 0.0 | 0.0 | 0.00 | 0.00 | 0.00 | 64 | 1016.2 |
| 20260502063204 | 62 | 324 | 0.0 | 2.0 | 0.00 | 0.00 | 0.00 | 62 | 1016.1 |
| 20260502060204 | 63 | 18 | 1.0 | 5.0 | 0.00 | 0.00 | 0.00 | 62 | 1015.9 |
| 20260502053704 | 63 | 322 | 0.0 | 2.0 | 0.00 | 0.00 | 0.00 | 70 | 1015.6 |
| 20260502053204 | 63 | 29 | 1.0 | 3.0 | 0.00 | 0.00 | 0.00 | 70 | 1015.6 |
| 20260502050704 | 63 | 35 | 0.0 | 1.0 | 0.00 | 0.00 | 0.00 | 69 | 1015.4 |
| 20260502050204 | 63 | 35 | 0.0 | 2.0 | 0.00 | 0.00 | 0.00 | 69 | 1015.4 |
| 20260502043704 | 63 | 301 | 0.0 | 0.0 | 0.00 | 0.00 | 0.00 | 69 | 1015.2 |
| 20260502043204 | 63 | 301 | 0.0 | 3.0 | 0.00 | 0.00 | 0.00 | 69 | 1015.2 |
| 20260502040704 | 64 | 287 | 1.0 | 2.0 | 0.00 | 0.00 | 0.00 | 67 | 1015.1 |
| 20260502040204 | 64 | 0 | 0.0 | 3.0 | 0.00 | 0.00 | 0.00 | 67 | 1015.0 |
| 20260502033704 | 65 | 267 | 1.0 | 6.0 | 0.00 | 0.00 | 0.00 | 63 | 1014.4 |
| 20260502033204 | 66 | 331 | 3.0 | 9.0 | 0.00 | 0.00 | 0.00 | 61 | 1014.4 |
| 20260502030704 | 67 | 19 | 1.0 | 3.0 | 0.00 | 0.00 | 0.00 | 57 | 1014.3 |
| 20260502030204 | 67 | 327 | 3.0 | 7.0 | 0.00 | 0.00 | 0.00 | 56 | 1014.2 |
| 20260502023704 | 68 | 151 | 1.0 | 3.0 | 0.00 | 0.00 | 0.00 | 53 | 1014.0 |
| 20260502020704 | 69 | 290 | 2.0 | 3.0 | 0.00 | 0.00 | 0.00 | 49 | 1013.9 |
| 20260502020205 | 70 | 301 | 2.0 | 10.0 | 0.00 | 0.00 | 0.00 | 49 | 1013.9 |